Time,TemperatureF,DewpointF,PressureIn,WindDirection,WindDirectionDegrees,WindSpeedMPH,WindSpeedGustMPH,Humidity,HourlyPrecipIn,Conditions,Clouds,dailyrainin,SoftwareType,DateUTC
2013-04-08 00:03:00,40.0,28.0,29.15,North,-999,-999.0,-999.0,63,0.00,,,0.00,,2013-04-08 04:03:00,
2013-04-08 00:13:00,40.0,28.0,29.15,North,-999,-999.0,-999.0,63,0.00,,,0.00,,2013-04-08 04:13:00,
2013-04-08 00:23:00,40.0,29.0,29.14,North,-999,-999.0,-999.0,65,0.00,,,0.00,,2013-04-08 04:23:00,
2013-04-08 00:34:00,40.0,29.0,29.15,North,-999,-999.0,-999.0,65,0.00,,,0.00,,2013-04-08 04:34:00,
2013-04-08 00:44:00,40.0,29.0,29.15,North,-999,-999.0,-999.0,65,0.00,,,0.00,,2013-04-08 04:44:00,
2013-04-08 00:53:00,40.0,30.0,29.15,North,-999,-999.0,-999.0,67,0.00,,,0.00,,2013-04-08 04:53:00,
2013-04-08 01:02:00,39.0,29.0,29.14,North,-999,-999.0,-999.0,67,0.00,,,0.00,,2013-04-08 05:02:00,
2013-04-08 01:12:00,39.0,29.0,29.14,North,-999,-999.0,-999.0,67,0.00,,,0.00,,2013-04-08 05:12:00,
2013-04-08 01:22:00,39.0,29.0,29.14,North,-999,-999.0,-999.0,67,0.00,,,0.00,,2013-04-08 05:22:00,
2013-04-08 01:32:00,39.0,29.0,29.15,North,-999,-999.0,-999.0,67,0.00,,,0.00,,2013-04-08 05:32:00,
2013-04-08 01:42:00,39.0,29.0,29.15,North,-999,-999.0,-999.0,67,0.00,,,0.00,,2013-04-08 05:42:00,
2013-04-08 01:53:00,38.0,29.0,29.13,North,-999,-999.0,-999.0,69,0.00,,,0.00,,2013-04-08 05:53:00,
2013-04-08 02:02:00,38.0,29.0,29.13,North,-999,-999.0,-999.0,71,0.00,,,0.00,,2013-04-08 06:02:00,
2013-04-08 02:12:00,38.0,29.0,29.13,North,-999,-999.0,-999.0,71,0.00,,,0.00,,2013-04-08 06:12:00,
2013-04-08 02:22:00,38.0,29.0,29.12,North,-999,-999.0,-999.0,71,0.00,,,0.00,,2013-04-08 06:22:00,
2013-04-08 02:32:00,38.0,30.0,29.13,North,-999,-999.0,-999.0,72,0.00,,,0.00,,2013-04-08 06:32:00,
2013-04-08 02:43:00,38.0,30.0,29.13,North,-999,-999.0,-999.0,72,0.00,,,0.00,,2013-04-08 06:43:00,
2013-04-08 02:52:00,38.0,30.0,29.12,North,-999,-999.0,-999.0,72,0.00,,,0.00,,2013-04-08 06:52:00,
2013-04-08 03:02:00,37.0,29.0,29.13,North,-999,-999.0,-999.0,72,0.00,,,0.00,,2013-04-08 07:02:00,
2013-04-08 03:12:00,37.0,29.0,29.13,North,-999,-999.0,-999.0,72,0.00,,,0.00,,2013-04-08 07:12:00,
2013-04-08 03:22:00,37.0,29.0,29.13,North,-999,-999.0,-999.0,72,0.00,,,0.00,,2013-04-08 07:22:00,
2013-04-08 03:33:00,37.0,29.0,29.13,North,-999,-999.0,-999.0,72,0.00,,,0.00,,2013-04-08 07:33:00,
2013-04-08 03:42:00,37.0,29.0,29.13,North,-999,-999.0,-999.0,72,0.00,,,0.00,,2013-04-08 07:42:00,
2013-04-08 03:52:00,36.0,28.0,29.12,North,-999,-999.0,-999.0,73,0.00,,,0.00,,2013-04-08 07:52:00,
2013-04-08 04:02:00,37.0,29.0,29.13,North,-999,-999.0,-999.0,74,0.00,,,0.00,,2013-04-08 08:02:00,
2013-04-08 04:12:00,37.0,29.0,29.13,North,-999,-999.0,-999.0,74,0.00,,,0.00,,2013-04-08 08:12:00,
2013-04-08 04:22:00,37.0,29.0,29.13,North,-999,-999.0,-999.0,74,0.00,,,0.00,,2013-04-08 08:22:00,
2013-04-08 04:33:00,37.0,30.0,29.12,North,-999,-999.0,-999.0,75,0.00,,,0.00,,2013-04-08 08:33:00,
2013-04-08 04:42:00,37.0,30.0,29.12,North,-999,-999.0,-999.0,76,0.00,,,0.00,,2013-04-08 08:42:00,
2013-04-08 04:52:00,37.0,30.0,29.12,North,-999,-999.0,-999.0,76,0.00,,,0.00,,2013-04-08 08:52:00,
2013-04-08 05:02:00,37.0,30.0,29.12,North,-999,-999.0,-999.0,76,0.00,,,0.00,,2013-04-08 09:02:00,
2013-04-08 05:12:00,37.0,30.0,29.12,North,-999,-999.0,-999.0,76,0.00,,,0.00,,2013-04-08 09:12:00,
2013-04-08 05:23:00,37.0,30.0,29.12,North,-999,-999.0,-999.0,76,0.00,,,0.00,,2013-04-08 09:23:00,
2013-04-08 05:33:00,37.0,30.0,29.12,North,-999,-999.0,-999.0,76,0.00,,,0.00,,2013-04-08 09:33:00,
2013-04-08 05:43:00,37.0,30.0,29.12,North,-999,-999.0,-999.0,76,0.00,,,0.00,,2013-04-08 09:43:00,
2013-04-08 05:53:00,36.0,29.0,29.13,North,-999,-999.0,-999.0,76,0.00,,,0.00,,2013-04-08 09:53:00,
2013-04-08 06:03:00,36.0,29.0,29.14,North,-999,-999.0,-999.0,76,0.00,,,0.00,,2013-04-08 10:03:00,
2013-04-08 06:13:00,36.0,29.0,29.14,North,-999,-999.0,-999.0,76,0.00,,,0.00,,2013-04-08 10:13:00,
2013-04-08 06:23:00,35.0,28.0,29.14,North,-999,-999.0,-999.0,76,0.00,,,0.00,,2013-04-08 10:23:00,
2013-04-08 06:33:00,35.0,29.0,29.14,North,-999,-999.0,-999.0,77,0.00,,,0.00,,2013-04-08 10:33:00,
2013-04-08 06:42:00,35.0,29.0,29.14,North,-999,-999.0,-999.0,77,0.00,,,0.00,,2013-04-08 10:42:00,
2013-04-08 06:52:00,35.0,29.0,29.16,North,-999,-999.0,-999.0,77,0.00,,,0.00,,2013-04-08 10:52:00,
2013-04-08 07:03:00,35.0,28.0,29.17,North,-999,-999.0,-999.0,76,0.00,,,0.00,,2013-04-08 11:03:00,
2013-04-08 07:12:00,36.0,29.0,29.17,North,-999,-999.0,-999.0,76,0.00,,,0.00,,2013-04-08 11:12:00,
2013-04-08 07:23:00,36.0,29.0,29.17,North,-999,-999.0,-999.0,76,0.00,,,0.00,,2013-04-08 11:23:00,
2013-04-08 07:32:00,36.0,29.0,29.17,North,-999,-999.0,-999.0,77,0.00,,,0.00,,2013-04-08 11:32:00,
2013-04-08 07:42:00,36.0,29.0,29.17,North,-999,-999.0,-999.0,77,0.00,,,0.00,,2013-04-08 11:42:00,
2013-04-08 07:53:00,37.0,30.0,29.18,North,-999,-999.0,-999.0,77,0.00,,,0.00,,2013-04-08 11:53:00,
2013-04-08 08:03:00,39.0,32.0,29.19,North,-999,-999.0,-999.0,76,0.00,,,0.00,,2013-04-08 12:03:00,
2013-04-08 08:12:00,39.0,32.0,29.19,North,-999,-999.0,-999.0,76,0.00,,,0.00,,2013-04-08 12:12:00,
2013-04-08 08:23:00,41.0,34.0,29.19,North,-999,-999.0,-999.0,76,0.00,,,0.00,,2013-04-08 12:23:00,
2013-04-08 08:33:00,43.0,35.0,29.19,North,-999,-999.0,-999.0,72,0.00,,,0.00,,2013-04-08 12:33:00,
2013-04-08 08:42:00,43.0,35.0,29.19,North,-999,-999.0,-999.0,72,0.00,,,0.00,,2013-04-08 12:42:00,
2013-04-08 08:52:00,44.0,34.0,29.18,North,-999,-999.0,-999.0,69,0.00,,,0.00,,2013-04-08 12:52:00,
2013-04-08 09:03:00,45.0,34.0,29.19,North,-999,-999.0,-999.0,64,0.00,,,0.00,,2013-04-08 13:03:00,
2013-04-08 09:12:00,45.0,34.0,29.19,North,-999,-999.0,-999.0,64,0.00,,,0.00,,2013-04-08 13:12:00,
2013-04-08 09:22:00,46.0,34.0,29.19,North,-999,-999.0,-999.0,63,0.00,,,0.00,,2013-04-08 13:22:00,
2013-04-08 09:32:00,46.0,33.0,29.19,North,-999,-999.0,-999.0,60,0.00,,,0.00,,2013-04-08 13:32:00,
2013-04-08 09:43:00,46.0,33.0,29.19,North,-999,-999.0,-999.0,60,0.00,,,0.00,,2013-04-08 13:43:00,
2013-04-08 09:52:00,46.0,33.0,29.19,North,-999,-999.0,-999.0,60,0.00,,,0.00,,2013-04-08 13:52:00,
2013-04-08 10:03:00,47.0,33.0,29.21,North,-999,-999.0,-999.0,57,0.00,,,0.00,,2013-04-08 14:03:00,
2013-04-08 10:12:00,47.0,33.0,29.21,North,-999,-999.0,-999.0,57,0.00,,,0.00,,2013-04-08 14:12:00,
2013-04-08 10:22:00,47.0,32.0,29.21,North,-999,-999.0,-999.0,56,0.00,,,0.00,,2013-04-08 14:22:00,
2013-04-08 10:33:00,47.0,32.0,29.22,North,-999,-999.0,-999.0,55,0.00,,,0.00,,2013-04-08 14:33:00,
2013-04-08 10:43:00,48.0,32.0,29.22,North,-999,-999.0,-999.0,54,0.00,,,0.00,,2013-04-08 14:43:00,
2013-04-08 10:52:00,48.0,32.0,29.22,North,-999,-999.0,-999.0,54,0.00,,,0.00,,2013-04-08 14:52:00,
2013-04-08 11:02:00,49.0,33.0,29.22,North,-999,-999.0,-999.0,53,0.00,,,0.00,,2013-04-08 15:02:00,
2013-04-08 11:12:00,50.0,33.0,29.23,North,-999,-999.0,-999.0,52,0.00,,,0.00,,2013-04-08 15:12:00,
2013-04-08 11:22:00,50.0,33.0,29.23,North,-999,-999.0,-999.0,52,0.00,,,0.00,,2013-04-08 15:22:00,
2013-04-08 11:34:00,50.0,33.0,29.24,North,-999,-999.0,-999.0,52,0.00,,,0.00,,2013-04-08 15:34:00,
2013-04-08 11:43:00,50.0,33.0,29.24,North,-999,-999.0,-999.0,52,0.00,,,0.00,,2013-04-08 15:43:00,
2013-04-08 11:53:00,50.0,33.0,29.24,North,-999,-999.0,-999.0,51,0.00,,,0.00,,2013-04-08 15:53:00,
2013-04-08 12:03:00,52.0,34.0,29.25,North,-999,-999.0,-999.0,50,0.00,,,0.00,,2013-04-08 16:03:00,
2013-04-08 12:13:00,52.0,34.0,29.25,North,-999,-999.0,-999.0,50,0.00,,,0.00,,2013-04-08 16:13:00,
2013-04-08 12:23:00,53.0,33.0,29.25,North,-999,-999.0,-999.0,47,0.00,,,0.00,,2013-04-08 16:23:00,
2013-04-08 12:32:00,53.0,33.0,29.25,North,-999,-999.0,-999.0,47,0.00,,,0.00,,2013-04-08 16:32:00,
2013-04-08 12:42:00,53.0,33.0,29.25,North,-999,-999.0,-999.0,47,0.00,,,0.00,,2013-04-08 16:42:00,
2013-04-08 12:53:00,55.0,34.0,29.25,North,-999,-999.0,-999.0,45,0.00,,,0.00,,2013-04-08 16:53:00,
2013-04-08 13:03:00,55.0,34.0,29.25,North,-999,-999.0,-999.0,45,0.00,,,0.00,,2013-04-08 17:03:00,
2013-04-08 13:12:00,57.0,34.0,29.24,North,-999,-999.0,-999.0,42,0.00,,,0.00,,2013-04-08 17:12:00,
2013-04-08 13:23:00,57.0,34.0,29.24,North,-999,-999.0,-999.0,42,0.00,,,0.00,,2013-04-08 17:23:00,
2013-04-08 13:32:00,57.0,34.0,29.24,North,-999,-999.0,-999.0,41,0.00,,,0.00,,2013-04-08 17:32:00,
2013-04-08 13:45:00,57.0,34.0,29.24,North,-999,-999.0,-999.0,41,0.00,,,0.00,,2013-04-08 17:45:00,
2013-04-08 13:53:00,58.0,34.0,29.24,North,-999,-999.0,-999.0,41,0.00,,,0.00,,2013-04-08 17:53:00,
2013-04-08 14:02:00,59.0,34.0,29.24,North,-999,-999.0,-999.0,39,0.00,,,0.00,,2013-04-08 18:02:00,
2013-04-08 14:12:00,59.0,34.0,29.24,North,-999,-999.0,-999.0,39,0.00,,,0.00,,2013-04-08 18:12:00,
2013-04-08 14:23:00,60.0,34.0,29.24,North,-999,-999.0,-999.0,38,0.00,,,0.00,,2013-04-08 18:23:00,
2013-04-08 14:32:00,60.0,34.0,29.24,North,-999,-999.0,-999.0,38,0.00,,,0.00,,2013-04-08 18:32:00,
2013-04-08 14:42:00,60.0,34.0,29.24,North,-999,-999.0,-999.0,38,0.00,,,0.00,,2013-04-08 18:42:00,
2013-04-08 14:52:00,60.0,34.0,29.24,North,-999,-999.0,-999.0,38,0.00,,,0.00,,2013-04-08 18:52:00,
2013-04-08 15:03:00,60.0,34.0,29.24,North,-999,-999.0,-999.0,37,0.00,,,0.00,,2013-04-08 19:03:00,
2013-04-08 15:12:00,60.0,34.0,29.24,North,-999,-999.0,-999.0,37,0.00,,,0.00,,2013-04-08 19:12:00,
2013-04-08 15:23:00,61.0,34.0,29.24,North,-999,-999.0,-999.0,36,0.00,,,0.00,,2013-04-08 19:23:00,
2013-04-08 15:33:00,62.0,34.0,29.23,North,-999,-999.0,-999.0,35,0.00,,,0.00,,2013-04-08 19:33:00,
2013-04-08 15:42:00,61.0,33.0,29.23,North,-999,-999.0,-999.0,35,0.00,,,0.00,,2013-04-08 19:42:00,
2013-04-08 15:53:00,61.0,33.0,29.23,North,-999,-999.0,-999.0,35,0.00,,,0.00,,2013-04-08 19:53:00,
2013-04-08 16:02:00,61.0,34.0,29.23,North,-999,-999.0,-999.0,36,0.00,,,0.00,,2013-04-08 20:02:00,
2013-04-08 16:12:00,62.0,34.0,29.24,North,-999,-999.0,-999.0,35,0.00,,,0.00,,2013-04-08 20:12:00,
2013-04-08 16:23:00,62.0,34.0,29.24,North,-999,-999.0,-999.0,35,0.00,,,0.00,,2013-04-08 20:23:00,
2013-04-08 16:33:00,62.0,34.0,29.24,North,-999,-999.0,-999.0,35,0.00,,,0.00,,2013-04-08 20:33:00,
2013-04-08 16:43:00,62.0,34.0,29.24,North,-999,-999.0,-999.0,35,0.00,,,0.00,,2013-04-08 20:43:00,
2013-04-08 16:52:00,62.0,33.0,29.24,North,-999,-999.0,-999.0,34,0.00,,,0.00,,2013-04-08 20:52:00,
2013-04-08 17:02:00,63.0,34.0,29.24,North,-999,-999.0,-999.0,34,0.00,,,0.00,,2013-04-08 21:02:00,
2013-04-08 17:12:00,63.0,34.0,29.24,North,-999,-999.0,-999.0,34,0.00,,,0.00,,2013-04-08 21:12:00,
2013-04-08 17:22:00,62.0,33.0,29.23,North,-999,-999.0,-999.0,34,0.00,,,0.00,,2013-04-08 21:22:00,
2013-04-08 17:33:00,62.0,33.0,29.21,North,-999,-999.0,-999.0,34,0.00,,,0.00,,2013-04-08 21:33:00,
2013-04-08 17:43:00,62.0,33.0,29.21,North,-999,-999.0,-999.0,34,0.00,,,0.00,,2013-04-08 21:43:00,
2013-04-08 17:52:00,62.0,33.0,29.23,North,-999,-999.0,-999.0,34,0.00,,,0.00,,2013-04-08 21:52:00,
2013-04-08 18:03:00,69.0,36.0,29.22,North,-999,-999.0,-999.0,30,0.00,,,0.00,,2013-04-08 22:03:00,
2013-04-08 18:13:00,69.0,36.0,29.22,North,-999,-999.0,-999.0,30,0.00,,,0.00,,2013-04-08 22:13:00,
2013-04-08 18:23:00,74.0,39.0,29.22,North,-999,-999.0,-999.0,28,0.00,,,0.00,,2013-04-08 22:23:00,
2013-04-08 18:32:00,74.0,39.0,29.22,North,-999,-999.0,-999.0,28,0.00,,,0.00,,2013-04-08 22:32:00,
2013-04-08 18:43:00,73.0,37.0,29.22,North,-999,-999.0,-999.0,27,0.00,,,0.00,,2013-04-08 22:43:00,
2013-04-08 18:53:00,68.0,34.0,29.23,North,-999,-999.0,-999.0,28,0.00,,,0.00,,2013-04-08 22:53:00,
2013-04-08 19:02:00,67.0,33.0,29.24,North,-999,-999.0,-999.0,28,0.00,,,0.00,,2013-04-08 23:02:00,
2013-04-08 19:12:00,67.0,33.0,29.24,North,-999,-999.0,-999.0,28,0.00,,,0.00,,2013-04-08 23:12:00,
2013-04-08 19:22:00,67.0,33.0,29.24,North,-999,-999.0,-999.0,28,0.00,,,0.00,,2013-04-08 23:22:00,
2013-04-08 19:32:00,54.0,28.0,29.25,North,-999,-999.0,-999.0,37,0.00,,,0.00,,2013-04-08 23:32:00,
2013-04-08 19:43:00,54.0,28.0,29.25,North,-999,-999.0,-999.0,37,0.00,,,0.00,,2013-04-08 23:43:00,
2013-04-08 19:52:00,52.0,27.0,29.25,North,-999,-999.0,-999.0,38,0.00,,,0.00,,2013-04-08 23:52:00,
2013-04-08 20:02:00,49.0,28.0,29.26,North,-999,-999.0,-999.0,44,0.00,,,0.00,,2013-04-09 00:02:00,
2013-04-08 20:13:00,49.0,28.0,29.26,North,-999,-999.0,-999.0,44,0.00,,,0.00,,2013-04-09 00:13:00,
2013-04-08 20:22:00,49.0,29.0,29.26,North,-999,-999.0,-999.0,46,0.00,,,0.00,,2013-04-09 00:22:00,
2013-04-08 20:32:00,47.0,29.0,29.27,North,-999,-999.0,-999.0,50,0.00,,,0.00,,2013-04-09 00:32:00,
2013-04-08 20:42:00,47.0,29.0,29.27,North,-999,-999.0,-999.0,50,0.00,,,0.00,,2013-04-09 00:42:00,
2013-04-08 20:52:00,46.0,29.0,29.28,North,-999,-999.0,-999.0,52,0.00,,,0.00,,2013-04-09 00:52:00,
2013-04-08 21:03:00,45.0,29.0,29.28,North,-999,-999.0,-999.0,54,0.00,,,0.00,,2013-04-09 01:03:00,
2013-04-08 21:12:00,45.0,29.0,29.28,North,-999,-999.0,-999.0,54,0.00,,,0.00,,2013-04-09 01:12:00,
2013-04-08 21:22:00,44.0,29.0,29.29,North,-999,-999.0,-999.0,55,0.00,,,0.00,,2013-04-09 01:22:00,
2013-04-08 21:34:00,43.0,29.0,29.30,North,-999,-999.0,-999.0,57,0.00,,,0.00,,2013-04-09 01:34:00,
2013-04-08 21:42:00,43.0,29.0,29.30,North,-999,-999.0,-999.0,58,0.00,,,0.00,,2013-04-09 01:42:00,
2013-04-08 21:52:00,43.0,29.0,29.30,North,-999,-999.0,-999.0,58,0.00,,,0.00,,2013-04-09 01:52:00,
2013-04-08 22:02:00,43.0,29.0,29.29,North,-999,-999.0,-999.0,58,0.00,,,0.00,,2013-04-09 02:02:00,
2013-04-08 22:13:00,43.0,29.0,29.29,North,-999,-999.0,-999.0,58,0.00,,,0.00,,2013-04-09 02:13:00,
2013-04-08 22:22:00,42.0,29.0,29.30,North,-999,-999.0,-999.0,59,0.00,,,0.00,,2013-04-09 02:22:00,
2013-04-08 22:33:00,42.0,29.0,29.30,North,-999,-999.0,-999.0,60,0.00,,,0.00,,2013-04-09 02:33:00,
2013-04-08 22:43:00,42.0,29.0,29.30,North,-999,-999.0,-999.0,60,0.00,,,0.00,,2013-04-09 02:43:00,
2013-04-08 22:52:00,42.0,29.0,29.30,North,-999,-999.0,-999.0,60,0.00,,,0.00,,2013-04-09 02:52:00,
2013-04-08 23:02:00,41.0,29.0,29.29,North,-999,-999.0,-999.0,61,0.00,,,0.00,,2013-04-09 03:02:00,
2013-04-08 23:12:00,41.0,29.0,29.29,North,-999,-999.0,-999.0,61,0.00,,,0.00,,2013-04-09 03:12:00,
2013-04-08 23:22:00,41.0,29.0,29.29,North,-999,-999.0,-999.0,61,0.00,,,0.00,,2013-04-09 03:22:00,
2013-04-08 23:33:00,41.0,29.0,29.28,North,-999,-999.0,-999.0,62,0.00,,,0.00,,2013-04-09 03:33:00,
2013-04-08 23:43:00,41.0,29.0,29.28,North,-999,-999.0,-999.0,62,0.00,,,0.00,,2013-04-09 03:43:00,
2013-04-08 23:53:00,41.0,29.0,29.29,North,-999,-999.0,-999.0,62,0.00,,,0.00,,2013-04-09 03:53:00,